QPF
0.18 0.22 0.24 0.12 0.06 0.08 0.06 0.04 0.04 0.03 0.03 0.04 0.05 0.07 0.09 0.14 0.17 0.13 0.09 0.07 0.09 0.13 0.13 0.13 0.14 0.13 0.14 0.14 0.13 0.11 0.10 0.08 0.08 0.07 0.07 0.06 0.06 0.05 0.04 0.03 0.03 0.03 0.03
0.24 0.19 0.10 0.04 0.03 0.03 0.03 0.04 0.04 0.03 0.05 0.06 0.06 0.06 0.05 0.07 0.10 0.09 0.06 0.06 0.06 0.09 0.12 0.15 0.13 0.09 0.09 0.08 0.08 0.07 0.07 0.07 0.08 0.07 0.07 0.07 0.08 0.06 0.05 0.03 0.02 0.03 0.03
0.14 0.06 0.03 0.02 0.02 0.02 0.03 0.05 0.06 0.06 0.10 0.08 0.06 0.06 0.04 0.04 0.06 0.07 0.05 0.04 0.04 0.05 0.07 0.09 0.10 0.08 0.07 0.07 0.06 0.05 0.05 0.05 0.05 0.05 0.05 0.05 0.05 0.05 0.05 0.05 0.04 0.03 0.03
0.07 0.04 0.02 0.02 0.02 0.02 0.03 0.04 0.06 0.05 0.06 0.05 0.05 0.04 0.03 0.03 0.04 0.04 0.03 0.03 0.03 0.04 0.04 0.05 0.07 0.08 0.07 0.07 0.06 0.05 0.04 0.04 0.03 0.04 0.04 0.03 0.04 0.04 0.04 0.03 0.04 0.04 0.04
0.07 0.04 0.02 0.02 0.03 0.02 0.03 0.03 0.04 0.05 0.05 0.05 0.04 0.03 0.03 0.02 0.02 0.02 0.02 0.02 0.03 0.03 0.04 0.03 0.03 0.04 0.05 0.05 0.05 0.04 0.03 0.03 0.02 0.03 0.03 0.04 0.04 0.03 0.03 0.02 0.02 0.03 0.03
0.07 0.04 0.03 0.03 0.03 0.02 0.02 0.04 0.05 0.05 0.04 0.02 0.03 0.05 0.04 0.03 0.01 0.01 0.02 0.02 0.02 0.03 0.06 0.06 0.05 0.04 0.04 0.04 0.03 0.03 0.02 0.02 0.02 0.02 0.02 0.02 0.02 0.03 0.04 0.02 0.02 0.02 0.01
0.08 0.05 0.04 0.03 0.02 0.02 0.02 0.02 0.02 0.04 0.04 0.04 0.04 0.04 0.05 0.03 0.02 0.01 0.01 0.01 0.01 0.03 0.08 0.13 0.12 0.08 0.05 0.04 0.03 0.02 0.01 0.01 0.01 0.01 0.01 0.01 0.02 0.02 0.03 0.02 0.02 0.02 0.01
0.07 0.04 0.03 0.03 0.02 0.02 0.02 0.01 0.02 0.03 0.02 0.01 0.01 0.02 0.03 0.03 0.02 0.02 0.01 0.01 0.01 0.02 0.04 0.05 0.07 0.08 0.07 0.04 0.03 0.01 0.00 0.00 0.00 0.00 0.00 0.01 0.01 0.02 0.02 0.01 0.02 0.02 0.01
0.08 0.05 0.04 0.04 0.03 0.02 0.02 0.01 0.01 0.01 0.01 0.00 0.00 0.00 0.01 0.02 0.02 0.02 0.02 0.02 0.03 0.03 0.03 0.04 0.04 0.04 0.03 0.03 0.02 0.01 0.00 0.01 0.00 0.00 0.00 0.00 0.01 0.01 0.02 0.02 0.02 0.02 0.01
0.11 0.09 0.06 0.04 0.04 0.03 0.02 0.01 0.01 0.01 0.00 0.00 0.00 0.00 0.01 0.01 0.02 0.02 0.02 0.02 0.03 0.03 0.02 0.02 0.02 0.02 0.01 0.01 0.01 0.01 0.01 0.01 0.01 0.00 0.00 0.01 0.01 0.01 0.01 0.02 0.02 0.02 0.03
0.12 0.09 0.06 0.04 0.04 0.03 0.03 0.02 0.02 0.02 0.01 0.01 0.01 0.01 0.01 0.00 0.01 0.01 0.01 0.01 0.02 0.02 0.01 0.01 0.01 0.01 0.01 0.01 0.01 0.01 0.00 0.00 0.00 0.01 0.01 0.01 0.01 0.01 0.01 0.01 0.02 0.03 0.04
0.11 0.09 0.06 0.04 0.03 0.03 0.03 0.03 0.02 0.02 0.01 0.01 0.01 0.01 0.00 0.00 0.00 0.01 0.01 0.01 0.01 0.01 0.01 0.00 0.01 0.01 0.01 0.01 0.01 0.01 0.00 0.01 0.01 0.01 0.01 0.01 0.01 0.01 0.01 0.01 0.02 0.03 0.03
0.14 0.11 0.08 0.05 0.04 0.03 0.03 0.02 0.01 0.01 0.01 0.01 0.01 0.01 0.01 0.00 0.00 0.00 0.00 0.00 0.00 0.01 0.01 0.01 0.01 0.01 0.01 0.01 0.01 0.00 0.00 0.00 0.00 0.01 0.02 0.02 0.01 0.02 0.01 0.01 0.02 0.03 0.03
0.18 0.15 0.10 0.06 0.05 0.04 0.04 0.03 0.02 0.01 0.01 0.01 0.01 0.01 0.01 0.00 0.00 0.00 0.00 0.00 0.00 0.01 0.02 0.01 0.01 0.01 0.01 0.01 0.00 0.00 0.01 0.01 0.01 0.01 0.01 0.01 0.01 0.01 0.01 0.01 0.02 0.03 0.02
0.16 0.12 0.08 0.06 0.05 0.04 0.04 0.04 0.03 0.02 0.01 0.01 0.01 0.01 0.01 0.00 0.00 0.00 0.00 0.00 0.00 0.01 0.02 0.01 0.01 0.01 0.01 0.01 0.01 0.01 0.01 0.02 0.01 0.01 0.01 0.01 0.01 0.01 0.01 0.01 0.02 0.02 0.02
0.10 0.10 0.07 0.05 0.04 0.02 0.02 0.02 0.02 0.01 0.01 0.01 0.01 0.01 0.01 0.00 0.00 0.00 0.01 0.01 0.01 0.01 0.02 0.01 0.01 0.01 0.01 0.01 0.01 0.01 0.01 0.02 0.03 0.01 0.01 0.01 0.01 0.01 0.01 0.01 0.01 0.01 0.02
0.06 0.07 0.05 0.04 0.03 0.02 0.01 0.01 0.01 0.01 0.01 0.01 0.01 0.01 0.01 0.00 0.00 0.01 0.01 0.01 0.02 0.02 0.03 0.03 0.02 0.01 0.01 0.01 0.01 0.01 0.01 0.02 0.01 0.01 0.01 0.00 0.00 0.01 0.01 0.01 0.01 0.01 0.02
0.06 0.05 0.04 0.04 0.03 0.03 0.02 0.02 0.02 0.01 0.01 0.01 0.01 0.01 0.01 0.01 0.01 0.01 0.01 0.02 0.02 0.03 0.03 0.03 0.03 0.01 0.01 0.00 0.01 0.01 0.01 0.01 0.01 0.01 0.00 0.00 0.00 0.00 0.00 0.01 0.01 0.01 0.01
0.04 0.03 0.03 0.03 0.03 0.03 0.03 0.03 0.02 0.02 0.02 0.01 0.01 0.01 0.01 0.01 0.01 0.01 0.02 0.02 0.01 0.02 0.03 0.03 0.02 0.01 0.01 0.01 0.01 0.02 0.02 0.02 0.03 0.02 0.01 0.01 0.00 0.00 0.00 0.01 0.01 0.01 0.01
0.05 0.03 0.02 0.02 0.02 0.02 0.03 0.03 0.03 0.02 0.02 0.02 0.01 0.01 0.01 0.01 0.01 0.01 0.01 0.02 0.01 0.01 0.02 0.03 0.02 0.01 0.01 0.01 0.01 0.04 0.03 0.03 0.04 0.03 0.02 0.01 0.01 0.00 0.01 0.01 0.01 0.01 0.01
0.05 0.03 0.02 0.01 0.01 0.01 0.02 0.02 0.03 0.02 0.01 0.01 0.01 0.01 0.01 0.01 0.01 0.01 0.01 0.01 0.01 0.01 0.01 0.01 0.01 0.01 0.01 0.01 0.01 0.04 0.05 0.03 0.04 0.04 0.03 0.02 0.02 0.01 0.01 0.02 0.02 0.02 0.02
0.02 0.03 0.03 0.02 0.02 0.02 0.02 0.02 0.02 0.02 0.01 0.01 0.01 0.02 0.01 0.01 0.01 0.01 0.01 0.01 0.01 0.01 0.02 0.01 0.00 0.01 0.01 0.02 0.02 0.03 0.04 0.03 0.03 0.05 0.05 0.04 0.03 0.02 0.02 0.03 0.03 0.03 0.03
0.02 0.02 0.04 0.04 0.03 0.02 0.02 0.02 0.02 0.02 0.02 0.02 0.02 0.02 0.02 0.01 0.01 0.01 0.01 0.01 0.01 0.01 0.01 0.01 0.01 0.01 0.01 0.01 0.02 0.02 0.03 0.03 0.04 0.04 0.04 0.04 0.04 0.03 0.04 0.04 0.05 0.04 0.03
0.02 0.02 0.02 0.04 0.03 0.02 0.02 0.02 0.02 0.03 0.04 0.05 0.05 0.03 0.02 0.01 0.01 0.01 0.00 0.00 0.00 0.01 0.01 0.01 0.01 0.00 0.00 0.00 0.00 0.01 0.01 0.03 0.03 0.03 0.03 0.03 0.03 0.04 0.05 0.05 0.05 0.04 0.03
0.01 0.01 0.01 0.02 0.01 0.01 0.01 0.01 0.02 0.03 0.04 0.04 0.03 0.02 0.01 0.00 0.00 0.00 0.00 0.00 0.00 0.00 0.00 0.00 0.00 0.00 0.00 0.00 0.00 0.00 0.01 0.01 0.02 0.02 0.02 0.02 0.02 0.03 0.03 0.03 0.03 0.02 0.02
0.01 0.01 0.01 0.01 0.01 0.01 0.01 0.00 0.01 0.01 0.01 0.01 0.01 0.01 0.01 0.00 0.00 0.00 0.00 0.00 0.00 0.00 0.00 0.00 0.01 0.01 0.01 0.00 0.00 0.00 0.00 0.00 0.00 0.01 0.01 0.01 0.01 0.01 0.01 0.02 0.02 0.01 0.01
MSLP
1015.93 1016.31 1016.68 1016.99 1017.21 1017.32 1017.33 1017.24 1017.09 1016.93 1016.80 1016.72 1016.72 1016.79 1016.91 1017.05 1017.17 1017.23 1017.20 1017.07 1016.86 1016.58 1016.27 1015.97 1015.72 1015.55 1015.49 1015.53 1015.67 1015.90 1016.20 1016.53 1016.86 1017.17 1017.42 1017.60 1017.70 1017.72 1017.67 1017.57 1017.45 1017.34 1017.29
1016.15 1016.57 1016.95 1017.25 1017.45 1017.52 1017.50 1017.39 1017.25 1017.11 1017.02 1016.98 1017.01 1017.08 1017.18 1017.26 1017.30 1017.27 1017.16 1016.97 1016.73 1016.45 1016.17 1015.92 1015.72 1015.60 1015.56 1015.60 1015.73 1015.92 1016.17 1016.46 1016.77 1017.08 1017.35 1017.56 1017.71 1017.77 1017.74 1017.66 1017.53 1017.40 1017.30
1016.15 1016.59 1016.98 1017.29 1017.49 1017.57 1017.56 1017.47 1017.37 1017.28 1017.24 1017.26 1017.33 1017.42 1017.50 1017.54 1017.52 1017.42 1017.24 1017.01 1016.75 1016.48 1016.23 1016.03 1015.88 1015.79 1015.77 1015.80 1015.88 1016.02 1016.21 1016.44 1016.71 1016.98 1017.25 1017.49 1017.67 1017.77 1017.79 1017.73 1017.61 1017.46 1017.32
1016.00 1016.43 1016.85 1017.18 1017.41 1017.54 1017.56 1017.53 1017.49 1017.47 1017.50 1017.57 1017.68 1017.79 1017.86 1017.88 1017.81 1017.67 1017.45 1017.19 1016.92 1016.67 1016.45 1016.28 1016.17 1016.10 1016.08 1016.08 1016.12 1016.19 1016.31 1016.46 1016.66 1016.90 1017.15 1017.39 1017.59 1017.73 1017.79 1017.76 1017.65 1017.51 1017.35
1015.75 1016.18 1016.61 1017.00 1017.29 1017.48 1017.58 1017.62 1017.65 1017.70 1017.79 1017.91 1018.05 1018.17 1018.25 1018.25 1018.16 1017.99 1017.75 1017.48 1017.21 1016.97 1016.78 1016.64 1016.55 1016.49 1016.45 1016.42 1016.41 1016.41 1016.44 1016.51 1016.64 1016.82 1017.04 1017.27 1017.48 1017.65 1017.74 1017.74 1017.66 1017.52 1017.36
1015.45 1015.88 1016.36 1016.81 1017.18 1017.46 1017.65 1017.77 1017.87 1017.97 1018.10 1018.25 1018.40 1018.53 1018.60 1018.59 1018.50 1018.32 1018.08 1017.82 1017.57 1017.35 1017.18 1017.05 1016.97 1016.91 1016.85 1016.78 1016.71 1016.64 1016.60 1016.60 1016.65 1016.77 1016.95 1017.16 1017.37 1017.55 1017.67 1017.70 1017.65 1017.53 1017.36
1015.15 1015.60 1016.12 1016.65 1017.12 1017.50 1017.77 1017.97 1018.12 1018.26 1018.40 1018.56 1018.70 1018.82 1018.89 1018.88 1018.78 1018.62 1018.40 1018.16 1017.93 1017.73 1017.58 1017.47 1017.39 1017.31 1017.23 1017.13 1017.01 1016.88 1016.77 1016.71 1016.70 1016.77 1016.90 1017.08 1017.28 1017.47 1017.60 1017.66 1017.64 1017.54 1017.39
1014.88 1015.36 1015.95 1016.57 1017.13 1017.59 1017.95 1018.20 1018.39 1018.54 1018.68 1018.81 1018.93 1019.03 1019.08 1019.07 1018.98 1018.84 1018.65 1018.45 1018.25 1018.08 1017.95 1017.85 1017.76 1017.68 1017.57 1017.44 1017.28 1017.12 1016.96 1016.85 1016.79 1016.81 1016.91 1017.06 1017.24 1017.42 1017.57 1017.65 1017.66 1017.59 1017.46
1014.67 1015.20 1015.86 1016.56 1017.20 1017.74 1018.15 1018.44 1018.64 1018.78 1018.88 1018.98 1019.06 1019.13 1019.16 1019.15 1019.08 1018.97 1018.83 1018.67 1018.52 1018.38 1018.27 1018.17 1018.08 1017.99 1017.86 1017.71 1017.54 1017.35 1017.17 1017.02 1016.94 1016.92 1016.98 1017.10 1017.26 1017.44 1017.58 1017.68 1017.71 1017.67 1017.58
1014.57 1015.15 1015.87 1016.62 1017.32 1017.90 1018.35 1018.65 1018.84 1018.95 1019.02 1019.06 1019.10 1019.13 1019.15 1019.15 1019.11 1019.04 1018.95 1018.85 1018.74 1018.63 1018.54 1018.45 1018.36 1018.25 1018.12 1017.96 1017.77 1017.57 1017.38 1017.22 1017.12 1017.08 1017.12 1017.21 1017.34 1017.50 1017.63 1017.74 1017.79 1017.78 1017.71
1014.65 1015.27 1016.01 1016.78 1017.49 1018.08 1018.53 1018.82 1018.98 1019.06 1019.08 1019.08 1019.08 1019.09 1019.10 1019.10 1019.10 1019.08 1019.05 1018.99 1018.93 1018.86 1018.79 1018.71 1018.61 1018.49 1018.35 1018.18 1017.99 1017.79 1017.60 1017.45 1017.34 1017.28 1017.29 1017.35 1017.45 1017.57 1017.69 1017.78 1017.83 1017.84 1017.81
1014.94 1015.56 1016.29 1017.03 1017.71 1018.27 1018.68 1018.95 1019.08 1019.12 1019.10 1019.07 1019.04 1019.03 1019.04 1019.07 1019.11 1019.14 1019.16 1019.16 1019.14 1019.10 1019.04 1018.96 1018.85 1018.72 1018.57 1018.39 1018.20 1018.01 1017.83 1017.67 1017.55 1017.48 1017.45 1017.47 1017.52 1017.60 1017.67 1017.74 1017.78 1017.80 1017.79
1015.46 1016.05 1016.71 1017.38 1017.98 1018.47 1018.82 1019.04 1019.14 1019.15 1019.11 1019.06 1019.02 1019.02 1019.04 1019.10 1019.17 1019.25 1019.31 1019.36 1019.38 1019.36 1019.31 1019.23 1019.11 1018.96 1018.79 1018.61 1018.41 1018.22 1018.04 1017.87 1017.74 1017.64 1017.57 1017.53 1017.51 1017.52 1017.53 1017.55 1017.57 1017.58 1017.58
1016.19 1016.69 1017.25 1017.79 1018.28 1018.67 1018.95 1019.12 1019.18 1019.17 1019.13 1019.08 1019.06 1019.06 1019.11 1019.20 1019.31 1019.42 1019.53 1019.61 1019.65 1019.65 1019.60 1019.51 1019.38 1019.21 1019.02 1018.82 1018.61 1018.41 1018.22 1018.04 1017.87 1017.73 1017.60 1017.48 1017.38 1017.30 1017.23 1017.18 1017.15 1017.14 1017.15
1017.04 1017.42 1017.83 1018.23 1018.58 1018.87 1019.07 1019.18 1019.23 1019.22 1019.19 1019.16 1019.16 1019.19 1019.27 1019.38 1019.52 1019.66 1019.80 1019.90 1019.96 1019.96 1019.91 1019.80 1019.65 1019.46 1019.25 1019.03 1018.80 1018.58 1018.36 1018.15 1017.94 1017.74 1017.53 1017.33 1017.13 1016.94 1016.77 1016.63 1016.54 1016.49 1016.51
1017.89 1018.14 1018.40 1018.64 1018.86 1019.04 1019.17 1019.25 1019.28 1019.29 1019.29 1019.29 1019.32 1019.38 1019.48 1019.62 1019.78 1019.94 1020.09 1020.20 1020.26 1020.26 1020.20 1020.08 1019.91 1019.70 1019.47 1019.22 1018.97 1018.73 1018.48 1018.23 1017.96 1017.69 1017.40 1017.09 1016.78 1016.48 1016.20 1015.97 1015.81 1015.72 1015.73
1018.65 1018.76 1018.87 1018.98 1019.08 1019.17 1019.25 1019.31 1019.36 1019.39 1019.43 1019.47 1019.54 1019.63 1019.75 1019.90 1020.06 1020.22 1020.37 1020.48 1020.53 1020.53 1020.46 1020.33 1020.14 1019.92 1019.67 1019.41 1019.14 1018.87 1018.58 1018.29 1017.97 1017.62 1017.24 1016.84 1016.42 1016.01 1015.63 1015.31 1015.07 1014.95 1014.96
1019.20 1019.21 1019.20 1019.21 1019.23 1019.27 1019.33 1019.39 1019.46 1019.54 1019.61 1019.70 1019.79 1019.91 1020.04 1020.18 1020.34 1020.49 1020.62 1020.72 1020.76 1020.75 1020.68 1020.54 1020.35 1020.13 1019.87 1019.60 1019.32 1019.02 1018.71 1018.37 1018.00 1017.59 1017.13 1016.64 1016.13 1015.63 1015.16 1014.77 1014.48 1014.33 1014.34
1019.54 1019.47 1019.39 1019.34 1019.32 1019.35 1019.41 1019.50 1019.61 1019.73 1019.85 1019.97 1020.09 1020.21 1020.34 1020.47 1020.60 1020.73 1020.84 1020.91 1020.95 1020.93 1020.86 1020.72 1020.54 1020.33 1020.08 1019.81 1019.52 1019.22 1018.89 1018.52 1018.11 1017.65 1017.13 1016.58 1016.01 1015.44 1014.92 1014.49 1014.17 1014.00 1014.01
1019.67 1019.58 1019.48 1019.42 1019.40 1019.44 1019.53 1019.66 1019.81 1019.98 1020.13 1020.28 1020.41 1020.53 1020.64 1020.75 1020.86 1020.95 1021.03 1021.08 1021.10 1021.07 1021.01 1020.89 1020.73 1020.53 1020.30 1020.05 1019.77 1019.47 1019.13 1018.75 1018.32 1017.83 1017.29 1016.71 1016.11 1015.51 1014.97 1014.52 1014.20 1014.04 1014.05
1019.70 1019.61 1019.53 1019.50 1019.51 1019.59 1019.72 1019.90 1020.09 1020.29 1020.47 1020.63 1020.77 1020.88 1020.97 1021.04 1021.11 1021.16 1021.20 1021.23 1021.23 1021.21 1021.15 1021.05 1020.91 1020.75 1020.55 1020.32 1020.07 1019.78 1019.45 1019.07 1018.63 1018.14 1017.60 1017.02 1016.42 1015.84 1015.32 1014.89 1014.59 1014.44 1014.47
1019.70 1019.66 1019.63 1019.64 1019.70 1019.83 1020.00 1020.21 1020.44 1020.66 1020.86 1021.03 1021.15 1021.24 1021.30 1021.34 1021.36 1021.38 1021.39 1021.39 1021.37 1021.34 1021.29 1021.21 1021.10 1020.96 1020.80 1020.60 1020.38 1020.11 1019.80 1019.43 1019.01 1018.53 1018.01 1017.46 1016.90 1016.37 1015.89 1015.51 1015.25 1015.14 1015.19
1019.76 1019.77 1019.80 1019.87 1019.99 1020.15 1020.36 1020.60 1020.85 1021.08 1021.28 1021.44 1021.55 1021.61 1021.64 1021.65 1021.63 1021.60 1021.58 1021.55 1021.51 1021.47 1021.42 1021.36 1021.27 1021.17 1021.04 1020.87 1020.67 1020.43 1020.14 1019.79 1019.39 1018.95 1018.46 1017.96 1017.46 1016.98 1016.57 1016.26 1016.06 1015.99 1016.07
1019.92 1019.99 1020.08 1020.19 1020.35 1020.54 1020.77 1021.02 1021.27 1021.49 1021.68 1021.83 1021.92 1021.97 1021.97 1021.94 1021.89 1021.83 1021.76 1021.70 1021.65 1021.59 1021.54 1021.48 1021.41 1021.33 1021.22 1021.08 1020.90 1020.68 1020.41 1020.09 1019.72 1019.30 1018.86 1018.41 1017.97 1017.58 1017.24 1017.00 1016.87 1016.85 1016.95
1020.16 1020.29 1020.42 1020.56 1020.74 1020.94 1021.17 1021.41 1021.64 1021.85 1022.03 1022.16 1022.24 1022.27 1022.25 1022.19 1022.11 1022.02 1021.92 1021.83 1021.75 1021.67 1021.61 1021.55 1021.48 1021.41 1021.31 1021.19 1021.03 1020.82 1020.57 1020.27 1019.92 1019.54 1019.14 1018.74 1018.36 1018.04 1017.78 1017.61 1017.54 1017.57 1017.69
1020.43 1020.60 1020.75 1020.91 1021.09 1021.28 1021.49 1021.71 1021.92 1022.11 1022.27 1022.38 1022.45 1022.47 1022.44 1022.37 1022.27 1022.15 1022.02 1021.90 1021.79 1021.69 1021.60 1021.52 1021.45 1021.38 1021.29 1021.17 1021.02 1020.83 1020.58 1020.29 1019.97 1019.61 1019.25 1018.90 1018.58 1018.31 1018.12 1018.01 1018.00 1018.07 1018.21
Thickness
5718 5717 5717 5715 5711 5707 5705 5704 5702 5701 5698 5695 5691 5688 5685 5684 5682 5681 5680 5680 5680 5679 5679 5679 5678 5678 5678 5679 5681 5681 5681 5681 5682 5680 5678 5678 5680 5680 5681 5681 5682 5682 5682
5711 5710 5710 5709 5706 5702 5699 5697 5696 5694 5693 5690 5687 5683 5681 5678 5676 5674 5674 5673 5672 5672 5672 5672 5671 5671 5671 5672 5673 5675 5674 5674 5675 5673 5670 5668 5668 5671 5672 5672 5673 5673 5673
5708 5707 5704 5701 5700 5696 5694 5692 5690 5688 5686 5684 5681 5677 5674 5671 5669 5667 5666 5666 5666 5665 5665 5665 5664 5663 5664 5664 5665 5667 5666 5665 5667 5669 5666 5662 5660 5660 5661 5662 5663 5663 5664
5706 5702 5699 5695 5693 5691 5688 5686 5683 5681 5679 5677 5673 5669 5665 5661 5660 5660 5659 5659 5658 5657 5658 5658 5657 5657 5656 5656 5657 5659 5659 5659 5658 5661 5662 5662 5660 5655 5652 5652 5653 5654 5654
5702 5698 5694 5691 5688 5685 5682 5679 5677 5674 5672 5670 5666 5662 5659 5656 5654 5653 5652 5650 5650 5650 5650 5649 5649 5649 5648 5649 5649 5651 5651 5652 5651 5652 5653 5654 5653 5652 5649 5644 5643 5644 5645
5697 5693 5689 5686 5681 5678 5675 5672 5668 5665 5663 5661 5658 5655 5652 5649 5647 5645 5643 5641 5641 5641 5641 5641 5641 5641 5641 5642 5642 5643 5644 5644 5645 5645 5646 5645 5644 5644 5642 5639 5637 5635 5635
5691 5686 5683 5678 5674 5670 5667 5663 5660 5656 5654 5652 5650 5647 5644 5642 5639 5637 5635 5633 5631 5631 5632 5633 5633 5633 5634 5635 5635 5635 5636 5636 5637 5637 5638 5638 5638 5638 5637 5634 5631 5629 5627
5682 5679 5676 5671 5667 5663 5659 5655 5652 5648 5646 5644 5641 5639 5637 5634 5631 5630 5628 5626 5624 5623 5624 5625 5625 5625 5626 5627 5628 5628 5628 5629 5629 5630 5630 5630 5631 5631 5631 5629 5626 5622 5620
5674 5670 5668 5664 5660 5656 5651 5648 5644 5641 5638 5636 5633 5630 5628 5626 5623 5622 5621 5619 5617 5617 5617 5617 5617 5617 5618 5619 5619 5619 5619 5620 5621 5621 5622 5622 5623 5624 5624 5624 5622 5619 5615
5666 5662 5660 5656 5653 5649 5645 5640 5636 5633 5630 5628 5625 5622 5619 5617 5616 5614 5613 5611 5610 5609 5609 5609 5608 5609 5609 5610 5610 5610 5611 5612 5612 5613 5613 5613 5614 5616 5616 5616 5616 5615 5613
5660 5656 5652 5649 5645 5641 5636 5632 5628 5625 5622 5619 5616 5613 5611 5609 5608 5606 5604 5603 5602 5602 5601 5600 5601 5600 5600 5601 5601 5601 5602 5603 5603 5604 5604 5605 5606 5607 5608 5608 5608 5608 5607
5656 5649 5644 5641 5637 5633 5629 5624 5620 5617 5613 5611 5608 5604 5602 5600 5598 5597 5595 5595 5594 5593 5593 5593 5592 5592 5592 5592 5592 5593 5593 5594 5594 5594 5595 5596 5598 5598 5599 5600 5600 5600 5600
5647 5643 5638 5634 5631 5627 5622 5617 5613 5609 5605 5602 5598 5595 5592 5590 5589 5587 5586 5586 5586 5585 5585 5585 5584 5584 5584 5584 5584 5585 5585 5585 5586 5586 5587 5587 5589 5589 5590 5591 5592 5593 5594
5640 5635 5630 5627 5624 5619 5615 5610 5605 5601 5597 5593 5589 5586 5583 5582 5580 5579 5578 5578 5578 5577 5577 5576 5576 5576 5576 5576 5577 5576 5576 5577 5577 5578 5579 5580 5581 5581 5582 5584 5585 5586 5586
5634 5629 5624 5620 5616 5611 5607 5602 5598 5594 5590 5585 5581 5578 5576 5574 5573 5571 5571 5571 5570 5570 5569 5569 5568 5568 5568 5568 5568 5569 5569 5569 5570 5571 5572 5573 5574 5575 5576 5578 5578 5579 5579
5629 5624 5620 5615 5610 5606 5601 5596 5591 5587 5583 5578 5575 5572 5570 5568 5566 5564 5564 5563 5562 5562 5561 5561 5560 5560 5561 5561 5562 5563 5562 5562 5562 5563 5565 5566 5567 5569 5570 5571 5572 5573 5573
5625 5620 5616 5611 5606 5601 5596 5591 5586 5582 5577 5572 5569 5567 5564 5562 5560 5559 5557 5556 5555 5554 5554 5554 5553 5553 5554 5556 5557 5557 5557 5556 5556 5557 5558 5560 5561 5562 5564 5565 5566 5567 5568
5621 5616 5611 5607 5601 5597 5592 5587 5582 5577 5572 5568 5565 5562 5560 5557 5555 5554 5552 5551 5549 5548 5548 5548 5548 5548 5549 5551 5552 5552 5552 5551 5551 5552 5553 5554 5555 5557 5558 5559 5560 5561 5562
5619 5614 5608 5603 5598 5594 5589 5583 5578 5573 5568 5564 5561 5559 5556 5553 5551 5549 5547 5546 5545 5544 5544 5544 5544 5544 5544 5546 5548 5548 5547 5546 5547 5548 5549 5550 5551 5553 5554 5555 5555 5556 5558
5614 5610 5604 5599 5594 5590 5585 5579 5573 5568 5564 5561 5559 5556 5554 5551 5548 5546 5545 5544 5543 5542 5542 5541 5541 5541 5541 5543 5545 5546 5544 5543 5543 5544 5546 5547 5548 5550 5551 5551 5551 5552 5553
5611 5606 5601 5595 5591 5587 5582 5575 5570 5565 5563 5560 5557 5554 5552 5549 5547 5545 5543 5542 5540 5539 5538 5538 5539 5539 5540 5541 5543 5543 5542 5542 5542 5542 5543 5545 5547 5548 5549 5549 5549 5550 5551
5607 5602 5597 5592 5588 5584 5579 5572 5567 5564 5561 5558 5555 5552 5549 5548 5546 5543 5542 5540 5539 5537 5536 5536 5537 5538 5539 5541 5542 5543 5543 5542 5542 5542 5543 5545 5547 5548 5549 5550 5551 5551 5551
5604 5600 5595 5590 5586 5582 5577 5571 5566 5563 5560 5556 5553 5550 5548 5546 5544 5542 5540 5539 5537 5536 5536 5535 5535 5537 5539 5540 5541 5542 5542 5543 5542 5543 5544 5546 5548 5549 5550 5551 5552 5552 5551
5602 5598 5593 5588 5584 5581 5577 5572 5568 5564 5559 5555 5552 5549 5547 5544 5543 5541 5540 5539 5537 5536 5536 5536 5536 5537 5538 5540 5541 5541 5542 5543 5543 5544 5545 5548 5549 5550 5551 5552 5553 5553 5553
5601 5597 5592 5588 5584 5581 5577 5573 5569 5565 5560 5556 5553 5549 5547 5544 5542 5541 5540 5540 5540 5540 5539 5539 5539 5538 5539 5542 5543 5542 5542 5543 5543 5544 5546 5547 5548 5549 5551 5552 5554 5555 5555
5601 5597 5593 5589 5585 5582 5578 5574 5570 5566 5561 5557 5554 5550 5547 5545 5543 5541 5541 5542 5543 5544 5544 5545 5544 5544 5545 5546 5546 5546 5546 5546 5546 5545 5546 5547 5548 5550 5551 5552 5555 5557 5557